Hourly Data Report for December 24, 2003

SHERBROOKE A
QUEBEC

45°26'00.000" N
71°41'00.000" W
241.40 m
7028124
71610
YSC

Download Data

Hourly Data (December 2003)
Hourly Data Report for December 24, 2003
TIME
LST
Temp Definition
°C
Dew Point Definition
°C
Rel Hum Definition
%
Precip. Amount Definition
mm

Wind Dir Definition
10's deg

Wind Spd Definition
km/h
Visibility Definition
km
Stn Press Definition
kPa
Hmdx Definition


Wind Chill Definition


Weather Definition


00:00 0.7 -0.7 90     0 15.0 98.49      
01:00 0.6 -0.7 91   9 4 12.9 98.53      
02:00 -1.4 -2.8 90   5 6 0.8 98.58   -4  
03:00 1.0 -1.2 85   6 4 15.0 98.59      
04:00 -1.9 -3.6 88     0 15.0 98.55      
05:00 1.8 -1.6 78   14 7 15.0 98.49      
06:00 1.2 -1.7 81   10 4 15.0 98.52      
07:00 2.0 -0.5 83   11 4 15.0 98.57      
08:00 1.8 0.3 90   29 4 24.1 98.62     Rain
09:00 2.5 1.3 92     0 19.3 98.62     Rain
10:00 4.1 2.7 91   1 4 19.3 98.53     Rain
11:00 5.2 4.4 95   6 4 3.2 98.46     Rain, Fog
12:00 4.8 4.0 95   7 11 3.2 98.35     Moderate Rain, Fog
13:00 6.2 5.4 95   6 9 8.0 98.23     Rain, Fog
14:00 5.9 4.9 93   6 6 24.1 98.18     Cloudy
15:00 6.9 5.7 92   6 7 24.1 98.10     Cloudy
16:00 7.0 5.4 90   6 11 24.1 98.00     Cloudy
17:00 7.4 5.7 89   11 9 19.3 97.92     Rain
18:00 8.1 6.2 88   10 17 15.0 97.78     Rain
19:00 8.2 6.3 88   11 19 15.0 97.67     Rain
20:00 7.3 5.7 90   12 9 15.0 97.71     Rain
21:00 7.2 6.1 93   9 11 15.0 97.62     Rain
22:00 8.0 6.6 91   12 6 15.0 97.61     Rain
23:00 7.6 6.4 92   13 7 15.0 97.61      

Notes on Data Quality.

Legend

  • E = Estimated
  • M = Missing
  • NA = Not Available*
  • [empty] = Indicates an unobserved value
Date modified: